Hourly Data Report for November 07, 2019

All times are specified in Local Standard Time (LST). Add 1 hour to adjust for Daylight Saving Time where and when it is observed.

SEPT-ILES
QUEBEC
Current Station Operator: ECCC - MSC

50°13'00.000" N
66°15'00.000" W
52.60 m
7047914
71279
XZV

Download Data

Hourly Data (November 2019)
Hourly Data Report for November 7, 2019
TIME Temp Definition
°C
Dew Point Definition
°C
Rel Hum Definition
%
Wind Dir Definition
10's deg

Wind Spd Definition
km/h
Visibility Definition
km
Stn Press Definition
kPa
Hmdx Definition


Wind Chill Definition


Weather Definition


00:00 -5.4 -13.2 54 27 14   101.03   -11 LegendNANA
01:00 -5.7 -12.6 58 27 12   101.03   -11 LegendNANA
02:00 -5.6 -12.4 59 26 14   101.04   -11 LegendNANA
03:00 -5.7 -12.1 61 26 13   101.06   -11 LegendNANA
04:00 -5.6 -11.8 62 27 13   101.05   -11 LegendNANA
05:00 -6.3 -11.7 65 29 6   101.05   -9 LegendNANA
06:00 -6.6 -11.5 68 28 6   101.09   -10 LegendNANA
07:00 -6.3 -11.6 66 26 8   101.15   -10 LegendNANA
08:00 -4.8 -11.9 58 25 11   101.16   -9 LegendNANA
09:00 -3.4 -11.9 52 27 12   101.16   -8 LegendNANA
10:00 -2.6 -12.4 47 29 13   101.12   -7 LegendNANA
11:00 -1.5 -12.0 45 26 10   101.09   -5 LegendNANA
12:00 -1.2 -11.8 44 26 13   101.02   -5 LegendNANA
13:00 -0.7 -11.6 44 27 11   100.98   -4 LegendNANA
14:00 -0.4 -11.2 44 29 13   100.97   -5 LegendNANA
15:00 -1.4 -11.4 47 32 12   101.00   -5 LegendNANA
16:00 -2.4 -11.0 52 31 9   101.04   -6 LegendNANA
17:00 -3.0 -10.9 54 29 6   101.04   -5 LegendNANA
18:00 -5.9 -11.3 66 32 3   101.05   -7 LegendNANA
19:00 -7.3 -11.6 71 33 4   101.03   -9 LegendNANA
20:00 -7.8 -11.5 75 33 4   101.04   -10 LegendNANA
21:00 -9.8 -12.8 79 33 3   101.07   -12 LegendNANA
22:00 -7.6 -10.9 77 33 8   101.01   -12 LegendNANA
23:00 -9.2 -11.9 81 32 4   100.95   -11 LegendNANA

Notes on Data Quality.

Legend

  • E = Estimated
  • M = Missing
  • NA = Not Available
Date modified: